Location: Nairn
(57.5833°N, 3.8667°W)
Time: 09:22:21
(UTC+00:00)

ISS - Visible Passes

Search period start: 27 October 2020 00:00
Search period end: 06 November 2020 00:00
Orbit: 417 x 420 km, 51.6° (Epoch: 27 October)

Date Brightness Start Highest point End Pass type
(mag) Time Alt. Az. Time Alt. Az. Time Alt. Az.
27 Oct -1.0 04:54:51 10° S 04:56:21 12° SSE 04:57:50 10° ESE visible
27 Oct -1.8 06:29:30 10° SW 06:32:22 26° SSE 06:35:14 10° ESE visible
28 Oct -1.7 05:42:03 10° SW 05:44:46 23° SSE 05:47:29 10° ESE visible
29 Oct -1.7 04:56:24 18° S 04:57:10 19° SSE 04:59:40 10° ESE visible
29 Oct -2.2 06:30:22 10° WSW 06:33:21 29° S 06:36:20 10° ESE visible
30 Oct -1.0 04:10:41 14° SE 04:10:41 14° SE 04:11:44 10° ESE visible
30 Oct -2.2 05:43:38 16° SW 05:45:43 28° S 05:48:40 10° ESE visible
31 Oct -2.2 04:57:52 26° S 04:58:05 26° SSE 05:00:57 10° ESE visible
31 Oct -2.2 06:31:24 10° WSW 06:34:20 28° S 06:37:16 10° SE visible
01 Nov -1.1 04:12:04 16° SE 04:12:04 16° SE 04:13:11 10° ESE visible
01 Nov -2.4 05:45:01 19° SW 05:46:41 29° S 05:49:40 10° ESE visible
02 Nov -2.4 04:59:12 29° S 04:59:12 29° S 05:02:01 10° ESE visible
02 Nov -1.9 06:32:34 10° WSW 06:35:15 22° SSW 06:37:57 10° SE visible
03 Nov -1.0 04:13:23 16° ESE 04:13:23 16° ESE 04:14:20 10° ESE visible
03 Nov -2.2 05:46:20 20° SW 05:47:38 26° SSW 05:50:29 10° SE visible
04 Nov -2.2 05:00:31 27° S 05:00:31 27° S 05:02:55 10° SE visible
04 Nov -1.5 06:34:01 10° WSW 06:36:05 15° SSW 06:38:08 10° S visible
05 Nov -0.9 04:14:43 14° SE 04:14:43 14° SE 04:15:18 10° ESE visible
05 Nov -1.9 05:47:40 17° SW 05:48:30 19° SSW 05:50:57 10° SSE visible
